Regional Weather Roundup
Issued by NWS

Home | Current Version | Previous Version | Text Only | Print | Product List | Glossary On
Versions: 1 2 3 4 5 6 7 8 9 10 11 12 13 14 15 16 17 18 19 20 21 22 23 24 25 26 27 28 29 30 31 32 33 34 35 36 37 38 39 40 41 42 43 44 45 46 47 48 49 50
000
ASUS46 KSEW 291810
RWRWA

WASHINGTON REGIONAL WEATHER ROUNDUP
NATIONAL WEATHER SERVICE SEATTLE WA
1100 AM PDT FRI AUG 29 2014

NOTE:"FAIR" INDICATES FEW OR NO CLOUDS BELOW 12,000 FEET WITH NO
SIGNIFICANT WEATHER AND/OR OBSTRUCTIONS TO VISIBILITY.

WAZ505-507>509-291900-
SEATTLE, TACOMA, EVERETT, AND VICINITY

CITY           SKY/WX    TMP DP  RH WIND       PRES   REMARKS
EVERETT        CLOUDY    59  51  75 W8        30.01R
6HR MIN TEMP:  58; 6HR MAX TEMP:  60; 6HR PCP: TRACE;

BOEING FIELD   CLOUDY    67  52  58 S8        29.99R
6HR MIN TEMP:  61; 6HR MAX TEMP:  67;

RENTON         CLOUDY    67  53  61 S8        29.99R
6HR MIN TEMP:  62; 6HR MAX TEMP:  67;

SEATAC AIRPORT CLOUDY    65  49  56 SW10      30.01R
6HR MIN TEMP:  59; 6HR MAX TEMP:  65;

JBLM-MCCHORD   CLOUDY    68  53  57 VRB3      30.00S
6HR MIN TEMP:  58; 6HR MAX TEMP:  68;

PUYALLUP       NOT AVBL
JBLM-FT LEWIS  CLOUDY    68  51  53 SW6       30.00R
6HR MIN TEMP:  56; 6HR MAX TEMP:  68;

TACOMA NARROWS CLOUDY    64  49  57 SW8       30.00R
6HR MIN TEMP:  57; 6HR MAX TEMP:  64;

$$

WAZ001-503-506-510-514-515-291900-
NORTH INTERIOR

CITY           SKY/WX    TMP DP  RH WIND       PRES   REMARKS
BELLINGHAM     CLOUDY    61  49  64 S8        29.96
6HR MIN TEMP:  60; 6HR MAX TEMP:  62; 6HR PCP: TRACE;

FRIDAY HARBOR  CLOUDY    58  50  75 SW7       29.97F
6HR MIN TEMP:  54; 6HR MAX TEMP:  58; 6HR PCP: TRACE;

EASTSOUND      CLOUDY    59  50  72 S10G16    29.94S
PORT ANGELES   CLOUDY    61  51  70 CALM      29.98R
6HR MIN TEMP:  51; 6HR MAX TEMP:  61; 6HR PCP: TRACE;

NAS WHIDBEY    LGT RAIN  59  53  80 SW8       29.99S
6HR MIN TEMP:  58; 6HR MAX TEMP:  63; 6HR PCP: TRACE;

BURLINGTON     CLOUDY    63  50  63 S5        29.99S
$$

WAZ020-022-039-040-504-511-512-291900-
SOUTHWEST INTERIOR

CITY           SKY/WX    TMP DP  RH WIND       PRES   REMARKS
SHELTON        CLOUDY    61  51  70 SW12      29.98S
6HR MIN TEMP:  53; 6HR MAX TEMP:  63; 6HR PCP: TRACE;

OLYMPIA        CLOUDY    67  49  52 SW9       30.00R
6HR MIN TEMP:  54; 6HR MAX TEMP:  68;

CHEHALIS       NOT AVBL
KELSO          PTSUNNY   68  55  64 CALM      30.04F
6HR MIN TEMP:  63; 6HR MAX TEMP:  68;

VANCOUVER      CLOUDY    68  56  65 W3        30.01S
6HR MIN TEMP:  61; 6HR MAX TEMP:  69;

SCAPPOOSE, OR  CLOUDY    69  57  65 NE6       30.00F
6HR MIN TEMP:  62; 6HR MAX TEMP:  71;

PORTLAND, OR   PTSUNNY   69  59  70 VRB6      30.01S
6HR MIN TEMP:  63; 6HR MAX TEMP:  69;

$$

WAZ021-516-517-291900-
WASHINGTON COAST

CITY           SKY/WX    TMP DP  RH WIND       PRES   REMARKS
FORKS          PTSUNNY   61  56  83 SW7       29.99R
6HR MIN TEMP:  52; 6HR MAX TEMP:  63; 6HR PCP:  0.02;

HOQUIAM        CLOUDY    63  57  81 E6        30.00F
6HR MIN TEMP:  55; 6HR MAX TEMP:  63;

ASTORIA, OR    CLOUDY    65  59  81 S6        30.01R
6HR MIN TEMP:  58; 6HR MAX TEMP:  66;

$$

WAZ019-023-024-040-518-519-291900-
CASCADE MOUNTAINS AND COLUMBIA GORGE

CITY           SKY/WX    TMP DP  RH WIND       PRES   REMARKS
STAMPEDE PASS  NOT AVBL
TROUTDALE, OR  CLOUDY    68  59  73 SE3       30.00S
6HR MIN TEMP:  64; 6HR MAX TEMP:  68;

THE DALLES, OR SUNNY     79  55  43 NW18G28   29.91F
6HR MIN TEMP:  58; 6HR MAX TEMP:  79;

$$

WAZ026-027-041>044-520-521-291900-
EAST SLOPES

CITY           SKY/WX    TMP DP  RH WIND       PRES   REMARKS
OMAK           SUNNY     73  50  44 VRB3      29.86F
6HR MIN TEMP:  54; 6HR MAX TEMP:  74;

WENATCHEE      SUNNY     79  45  29 NW14      29.87F
6HR MIN TEMP:  63; 6HR MAX TEMP:  79;

ELLENSBURG     SUNNY     76  50  40 NW18G28   29.91F
6HR MIN TEMP:  53; 6HR MAX TEMP:  76;

YAKIMA         NOT AVBL
$$

WAZ028-034-035-291900-
COLUMBIA BASIN

CITY           SKY/WX    TMP DP  RH WIND       PRES   REMARKS
EPHRATA        SUNNY     77  48  35 S7        29.87F
6HR MIN TEMP:  56; 6HR MAX TEMP:  77;

MOSES LAKE     MOSUNNY   76  51  41 SW7       29.89F
6HR MIN TEMP:  56; 6HR MAX TEMP:  76;

PASCO          SUNNY     80  53  39 W9        29.88F
6HR MIN TEMP:  57; 6HR MAX TEMP:  80;

HERMISTON, OR  SUNNY     80  54  40 W14       29.89F
6HR MIN TEMP:  53; 6HR MAX TEMP:  81;

$$

WAZ036>038-291900-
NORTHEAST WASHINGTON

CITY           SKY/WX    TMP DP  RH WIND       PRES   REMARKS
SPOKANE GEIGER MOSUNNY   74  46  36 S16       29.92F
6HR MIN TEMP:  56; 6HR MAX TEMP:  74;

SPOKANE FELTS  SUNNY     75  45  34 SW3       29.92F
6HR MIN TEMP:  56; 6HR MAX TEMP:  77;

FAIRCHILD AFB  SUNNY     74  46  37 S13G20    29.93F
6HR MIN TEMP:  54; 6HR MAX TEMP:  74;

COEURDALENE,ID SUNNY     73  46  38 SE9       29.93F
6HR MIN TEMP:  52; 6HR MAX TEMP:  73;

DEER PARK      SUNNY     72  45  37 S5        29.93F
6HR MIN TEMP:  44; 6HR MAX TEMP:  73;

$$

WAZ029>033-291900-
SOUTHEAST WASHINGTON

CITY           SKY/WX    TMP DP  RH WIND       PRES   REMARKS
PULLMAN        SUNNY     76  39  26 W7        29.97F
6HR MIN TEMP:  48; 6HR MAX TEMP:  77;

LEWISTON, ID   SUNNY     74  47  38 NW6       29.92F
6HR MIN TEMP:  58; 6HR MAX TEMP:  74;

WALLA WALLA    SUNNY     81  44  27 SW13      29.93S
6HR MIN TEMP:  63; 6HR MAX TEMP:  81;

PENDLETON, OR  SUNNY     78  48  34 W13G20    29.93S
6HR MIN TEMP:  56; 6HR MAX TEMP:  79;

$$


USA.gov is the U.S. government's official web portal to all federal, state and local government web resources and services.